Location: Cactus School
(34.5700°N, 118.0931°W)
Time: 08:33:47
(UTC-07:00)

Vanguard 1 Rocket - Pass Details

Date: 26 April 2024
Orbit: 650 x 4220 km, 34.3° (Epoch: 22 May)

Event Time Altitude Azimuth Distance (km) Brightness Sun altitude
Rises 23:35:11 0° 275° (W) 3,864 10.9 -38.3°
Reaches altitude 10° 23:37:41 10° 265° (W) 3,208 10.3 -38.5°
Enters shadow 23:39:50 20° 252° (WSW) 2,799 9.8 -38.6°
